This demonstration page uses our WeatherBlox Daily Observations layout. Learn more.

Left ArrowRight Arrow

Hourly Observations for July 26, 2021

Temp ( °F °C ) Dew Point ( °F °C ) Humidity (%) Winds ( mph kmh ) Pressure ( in mb ) Visibility ( mi km ) Precip ( " mm )
12:15 am 00:15 Clear 67 19.4 65 18.1 92 92 SSE 5 7 30.01 1016 7 11 N/A
12:35 am 00:35 Clear 67 19.3 65 18.1 93 93 SSE 6 9 30.00 1016 7 11 N/A
12:55 am 00:55 Clear 66 18.7 64 17.6 93 93 S 5 7 30.00 1016 7 11 N/A
1:15 am 01:15 Clear with Mist and Fog 65 18.1 63 17.2 95 95 N N/A 30.00 1016 5 8 N/A
1:35 am 01:35 Clear 65 18.3 64 17.5 95 95 N N/A 30.00 1016 7 11 N/A
1:55 am 01:55 Clear 66 18.7 64 17.8 95 95 N N/A 29.99 1016 7 11 N/A
2:15 am 02:15 Clear 64 17.6 62 16.7 95 95 N N/A 30.00 1016 7 11 N/A
2:35 am 02:35 Clear 65 18.2 62 16.9 92 92 SSE 3 6 30.00 1016 10 16 N/A
2:55 am 02:55 Clear 64 17.6 62 16.6 94 94 N N/A 29.99 1016 10 16 N/A
3:15 am 03:15 Clear 65 18.3 62 16.8 91 91 N N/A 29.98 1015 10 16 N/A
3:35 am 03:35 Clear 65 18.2 62 16.9 92 92 N N/A 29.97 1015 10 16 N/A
3:55 am 03:55 Clear 65 18.1 62 16.5 90 90 SSE 5 7 29.97 1015 10 16 N/A
4:15 am 04:15 Clear 65 18.5 63 17 91 91 N N/A 29.96 1015 10 16 N/A
4:35 am 04:35 Clear 62 16.8 61 16 95 95 N N/A 29.98 1015 7 11 N/A
4:55 am 04:55 Clear 62 16.6 60 15.7 94 94 N N/A 29.98 1015 7 11 N/A
5:15 am 05:15 Clear with Mist and Fog 61 16.3 60 15.7 96 96 N N/A 29.98 1015 5 8 N/A
5:35 am 05:35 Clear with Mist and Fog 61 16.1 60 15.5 96 96 N N/A 29.99 1015 5 8 N/A
5:55 am 05:55 Clear with Mist and Fog 60 15.8 60 15.3 97 97 N N/A 29.99 1016 4 6 N/A
6:15 am 06:15 Clear with Mist and Fog 61 16 60 15.5 97 97 N N/A 30.00 1016 4 6 N/A
6:35 am 06:35 Sunny with Mist and Fog 61 16.1 60 15.6 97 97 N N/A 30.00 1016 3 5 N/A
6:55 am 06:55 Sunny with Mist and Fog 60 15.8 60 15.3 97 97 N N/A 30.00 1016 3 5 N/A
7:15 am 07:15 Sunny with Mist and Fog 61 16.3 61 15.9 98 98 N N/A 29.99 1016 3 4 N/A
7:35 am 07:35 Sunny with Mist and Fog 64 17.9 63 17.3 96 96 SE 3 6 29.98 1015 4 6 N/A
10:35 am 10:35 Mostly Cloudy 78 25.6 71 21.8 80 80 SSE 12 19 29.92 1013 10 16 N/A
10:55 am 10:55 Mostly Cloudy 80 26.5 71 21.9 76 76 SSE 13 20 29.92 1013 10 16 N/A
11:15 am 11:15 Mostly Cloudy 80 26.5 71 21.8 75 75 SSE 10 17 29.92 1013 10 16 N/A
11:35 am 11:35 Partly Cloudy 80 26.7 71 21.6 74 74 SSE 12 19 29.92 1013 10 16 N/A
11:55 am 11:55 Partly Cloudy 81 27.2 70 21.2 70 70 SSE 9 15 29.91 1013 10 16 N/A
12:15 pm 12:15 Partly Cloudy 82 27.9 71 21.5 68 68 SE 9 15 29.91 1013 10 16 N/A
12:35 pm 12:35 Sunny 83 28.4 71 21.5 66 66 SSE 10 17 29.90 1013 10 16 N/A
12:55 pm 12:55 Partly Cloudy 84 28.9 71 21.5 64 64 SSE 14 22 29.90 1012 10 16 N/A
1:15 pm 13:15 Partly Cloudy 85 29.5 71 21.6 63 63 SSE 10 17 29.89 1012 10 16 N/A
1:35 pm 13:35 Partly Cloudy 86 29.9 71 21.9 62 62 SSE 12 19 29.89 1012 10 16 N/A
1:55 pm 13:55 Partly Cloudy 87 30.3 71 21.8 60 60 SSE 12 19 29.89 1012 10 16 N/A
2:15 pm 14:15 Partly Cloudy 87 30.5 71 21.8 60 60 SSE 14 22 29.88 1012 10 16 N/A
2:35 pm 14:35 Partly Cloudy 87 30.7 71 21.5 58 58 SE 13 20 29.88 1012 10 16 N/A
2:55 pm 14:55 Mostly Cloudy 88 31.1 71 21.7 57 57 SE 15 24 29.88 1012 10 16 N/A
3:15 pm 15:15 Partly Cloudy 88 31.1 71 21.8 58 58 SSE 14 22 29.87 1012 10 16 N/A
3:35 pm 15:35 Partly Cloudy 88 31.3 71 21.5 56 56 S 14 22 29.87 1011 10 16 N/A
3:55 pm 15:55 Partly Cloudy 88 31 70 21.3 56 56 SSE 10 17 29.86 1011 10 16 N/A
4:15 pm 16:15 Mostly Cloudy 89 31.5 71 21.7 56 56 SSE 15 24 29.86 1011 10 16 N/A
4:35 pm 16:35 Partly Cloudy 88 31.3 71 21.8 57 57 SE 12 19 29.86 1011 10 16 N/A
4:55 pm 16:55 Partly Cloudy 89 31.4 71 21.6 56 56 SSE 13 20 29.85 1011 10 16 N/A
5:15 pm 17:15 Sunny 89 31.6 72 22.2 57 57 SE 12 19 29.84 1010 10 16 N/A
5:35 pm 17:35 Sunny 89 31.4 72 22.4 59 59 SSE 13 20 29.83 1010 10 16 N/A
5:55 pm 17:55 Hazy 89 31.4 72 22.3 58 58 SSE 13 20 29.82 1010 3 4 N/A
6:15 pm 18:15 Partly Cloudy 88 31.3 73 22.6 60 60 SSE 12 19 29.82 1010 10 16 N/A
6:35 pm 18:35 Partly Cloudy 88 31.1 73 22.7 61 61 SSE 13 20 29.81 1009 10 16 N/A
6:55 pm 18:55 Sunny 87 30.8 73 22.5 61 61 SSE 12 19 29.81 1010 10 16 N/A
7:15 pm 19:15 Sunny 87 30.5 73 22.5 62 62 SSE 14 22 29.82 1010 10 16 N/A
7:35 pm 19:35 Sunny 86 30.1 73 22.5 64 64 SE 12 19 29.82 1010 10 16 N/A
7:55 pm 19:55 Sunny 85 29.6 74 23.1 68 68 SE 8 13 29.82 1010 10 16 N/A
8:15 pm 20:15 Sunny 84 29 73 23 70 70 SE 9 15 29.84 1010 10 16 N/A
8:35 pm 20:35 Sunny 83 28.5 73 23 72 72 SE 9 15 29.84 1011 10 16 N/A
8:55 pm 20:55 Sunny 82 27.8 74 23.2 76 76 SE 8 13 29.86 1011 10 16 N/A
9:15 pm 21:15 Clear 81 27.2 74 23.2 79 79 SE 8 13 29.87 1012 10 16 N/A
9:35 pm 21:35 Clear 81 27 74 23.2 80 80 SE 8 13 29.87 1012 10 16 N/A
9:55 pm 21:55 Clear 80 26.4 73 23 82 82 SSE 15 24 29.89 1012 10 16 N/A
10:15 pm 22:15 Clear 78 25.6 73 22.7 84 84 SSE 9 15 29.90 1013 10 16 N/A
10:35 pm 22:35 Clear 77 24.9 72 22.4 86 86 SSE 8 13 29.91 1013 10 16 N/A
10:55 pm 22:55 Clear 77 24.9 71 21.7 82 82 SSE 8 13 29.91 1013 10 16 N/A
11:15 pm 23:15 Clear 76 24.2 71 21.4 84 84 SSE 6 9 29.92 1013 10 16 N/A
11:35 pm 23:35 Clear 74 23.5 70 21.2 87 87 SE 5 7 29.92 1013 10 16 N/A
11:55 pm 23:55 Clear 74 23.3 70 21.1 88 88 SE 5 7 29.92 1013 10 16 N/A

Powered by AerisWeather